DECAYED

RESURS P1 DEB, 60225 (Decayed)

Orbit data source: Space-Track

RESURS P1 DEB, 60225 was space debris in LEO originally from a Commonwealth of Independent States-origin launch on Tue, 25 Jun 2013 UTC launched from the Tyuratam Missile And Space Complex (TTMTR). Debris objects in space refer to the collection of defunct objects orbiting the Earth. Examples of debris include non-operational satellites, rocket bodies, and fragments generated from explosions, collisions, or faulty payload assembly.

Not visible in the next 10 days
RESURS P1 DEB details
Identifier
60225, 2013-030P
Orbit
Decayed
Last TLE update5 months ago
Origin
Flag of CISTSSKBP? (CIS)
ManufacturerTSSKBP?
MissionDecayed spacecraft
Bus & MotorUnknown
MassUnknown
Launch date (UTC)
2013-06-25 (11 years ago)
Launch vehicleUnknown
Launch site
Tyuratam Missile And Space Complex (TTMTR)
Object type
Payload
Rocket body
Debris
Shape & HBRUnknown
Radar Cross SectionSmall (<0.1 m²)

Expand to show TLE details & history

TLE from 5 months ago
0 RESURS P1 DEB
1 60225U 13030P   24209.39050849  .11687150  22258-5  21757-2 0  9994
2 60225  96.9385 259.7880 0018364 269.5974  90.3218 16.31687613  4582
Epoch: 2024-07-27T09:22Z
Definitive object data (Epoch: 2024-07-27T09:22:19.933Z)
Latitude-0.00003°
Longitude173.65276°
Altitude191.352 km
Speed7.791 km/s
True Right ascension17h 19m 09s
True Declination0° 00' 00"
Sunlit
Object was in full shadow at TLE epoch
Visualization observer readout
Observer readout values are unavailable because the object's trajectory could not be propagated. This is usually caused when the trajectory data is faulty or the object's orbit has decayed.
Visualization observer readout
Observer readout values are unavailable because the object's trajectory could not be propagated. This is usually caused when the trajectory data is faulty or the object's orbit has decayed.
Orbital elements
Apogee altitude196.859 km
Perigee altitude172.755 km
Semi-major axis6,562.944 km
Eccentricity0.0018364
Inclination96.9385°
RAAN259.788°
Arg. of periapsis269.5974°
True anomaly90.53223°
Mean anomaly90.3218°
Eccentric anomaly90.42702°
Mean motion4.08221 °/min
BSTAR0.0021757
Orbital period88.19 mins
Loading maneuver chart data...

RESURS P1 DEB Visibility forecast

Observer location: undefined°, undefined

This satellite is decayed
Span
Click to sort rows by Start time (UTC) header in descending order
Start Az.
Max El. time (UTC)
Max El. Az.
Max El.
End time (UTC)
End Az.
|